Preview of NWS' New Version of Forecast
This preview is not operational and should not be used for support decisions.

Regional Weather Roundup (RWR)

Issued by National Weather Service (NWS)

                            
000
ASUS44 KMEG 251800
RWRTN 
TENNESSEE HOURLY STATE WEATHER ROUNDUP
NATIONAL WEATHER SERVICE MEMPHIS TN
100 PM CDT SUN AUG 25 2019

TNZ002-004-019-021-049-052-054-088>092-251900-
WEST TENNESSEE
  
CITY           SKY/WX    TMP DP  RH WIND       PRES   REMARKS
MEMPHIS INTL   PTSUNNY   83  75  77 VRB6      29.95F HX  90           
NWS MEMPHIS      N/A     84 N/A N/A MISG        N/A                   
JACKSON        FAIR      84  75  74 VRB6      29.97F HX  92           
DYERSBURG      PTSUNNY   83  74  74 SE6       29.97F                  
$$

TNZ008-025-027-028-033-062-065-066-251900-
NORTH MIDDLE TENNESSEE
  
CITY           SKY/WX    TMP DP  RH WIND       PRES   REMARKS
NASHVILLE      CLOUDY    83  72  69 S8G18     30.00F                  
CLARKSVILLE    FAIR      82  73  74 CALM      29.99F                  
SMYRNA         CLOUDY    79  72  79 S9        30.02F                  
CROSSVILLE     CLOUDY    72  66  81 SE8       30.10F                  
$$

TNZ061-075-076-078-094-096-097-251900-
SOUTH MIDDLE TENNESSEE
  
CITY           SKY/WX    TMP DP  RH WIND       PRES   REMARKS
$$

TNZ017-018-042-046-047-251900-
NORTHEAST TENNESSEE
  
CITY           SKY/WX    TMP DP  RH WIND       PRES   REMARKS
TRI CITIES     CLOUDY    75  60  59 CALM      30.12F                  
$$

TNZ012-013-036-069-073-074-251900-
CENTRAL EAST TENNESSEE
  
CITY           SKY/WX    TMP DP  RH WIND       PRES   REMARKS
KNOXVILLE      CLOUDY    76  65  68 N6        30.07F                  
OAK RIDGE      CLOUDY    77  65  66 CALM      30.09F                  
$$

TNZ083-085-099-251900-
SOUTHEAST TENNESSEE
  
CITY           SKY/WX    TMP DP  RH WIND       PRES   REMARKS
CHATTANOOGA    CLOUDY    72  66  81 S7        30.09F                  
$$

SKY/WX REPORTED AS FAIR MEANS FEW OR NO CLOUDS BELOW
12 THOUSAND FEET.